This is the latest recevied weather packets stored in our database for station/object DL1DH-17. If no packets are shown the sender has not sent any weather packets the latest 10 day(s).
| Time | Temp. | Humidity | Pressure | Rain* | Wind** | Luminosity | Snow |
|---|---|---|---|---|---|---|---|
| 1777727415 | 20.56° C | 31% | 980.3 hPa | - | - | - | - |
| 1777726575 | 20.56° C | 31% | 980.5 hPa | - | - | - | - |
| 1777725735 | 20° C | 33% | 980.8 hPa | - | - | - | - |
| 1777724894 | 20° C | 32% | 981 hPa | - | - | - | - |
| 1777724054 | 20° C | 35% | 981.3 hPa | - | - | - | - |
| 1777723210 | 19.44° C | 37% | 981.4 hPa | - | - | - | - |
| 1777722369 | 19.44° C | 38% | 981.6 hPa | - | - | - | - |
| 1777721529 | 18.89° C | 39% | 981.7 hPa | - | - | - | - |
| 1777720689 | 18.89° C | 40% | 982 hPa | - | - | - | - |
| 1777719849 | 18.33° C | 41% | 982.1 hPa | - | - | - | - |
| 1777719009 | 17.78° C | 42% | 982.2 hPa | - | - | - | - |
| 1777718169 | 17.22° C | 43% | 982.4 hPa | - | - | - | - |
| 1777717329 | 17.22° C | 43% | 982.7 hPa | - | - | - | - |
| 1777716489 | 17.22° C | 45% | 982.8 hPa | - | - | - | - |
| 1777715649 | 17.22° C | 45% | 982.9 hPa | - | - | - | - |
| 1777714808 | 16.11° C | 46% | 983.1 hPa | - | - | - | - |
| 1777713968 | 16.11° C | 47% | 983.1 hPa | - | - | - | - |
| 1777713128 | 15.56° C | 48% | 983.3 hPa | - | - | - | - |
| 1777712288 | 15.56° C | 48% | 983.4 hPa | - | - | - | - |
| 1777711448 | 15° C | 48% | 983.5 hPa | - | - | - | - |
| 1777710608 | 15° C | 49% | 983.7 hPa | - | - | - | - |
| 1777709768 | 14.44° C | 49% | 983.5 hPa | - | - | - | - |
| 1777708928 | 14.44° C | 49% | 983.6 hPa | - | - | - | - |
| 1777708088 | 14.44° C | 48% | 983.7 hPa | - | - | - | - |
| 1777707248 | 13.89° C | 48% | 983.9 hPa | - | - | - | - |
* Rain since midnight (hover to see other rain measurements)
** Current wind speed in m/s (hover to see current wind gust speed)